Main page
METAR-TAF:

METAR-TAF

Airports :

Pembrey Airport

Pembrey, Wales

latitude: 51-43N, longitude: 004-22W, elevation: 3 m

Current weather observation

The report was made 1 hour and 3 minutes ago, at 23:50 UTC
Wind 4 kt from the East/Northeast
Temperature 10°C
Humidity 82%
Pressure 1031 hPa
Visibility 10 km or more

METAR: EGOP 222350Z AUTO 06004KT 9999 // NCD 10/07 Q1031

Time: 01:53 (00:53 UTC)


TAF: missing

Weather observations and forecasts of more than 4000 airports (METAR and TAF reports).

The available stations are represented by yellow and red dots on the map.

Hover mouse over dot to see the name of the station.

Then click to see weather observations and forecasts.

To change the map : click on the green buttons with a black cross to zoom in, on the green button with a dash to zoom out, or on the green arrows for adjacent maps.


METAR-TAF: